Location: Gro�bocka
(50.8204°N, 11.9702°E)
Time: 05:29:31
(UTC+00:00)

X-37B - Pass Details

Date: 25 June 2021
Orbit: 383 x 392 km, 45.0° (Epoch: 01 July)

Event Time Altitude Azimuth Distance (km) Brightness Sun altitude
Rises 21:46:38 0° 253° (WSW) 2,255 4.5 -13.3°
Reaches altitude 10° 21:48:51 10° 241° (WSW) 1,402 3.3 -13.4°
Maximum altitude 21:51:37 28° 180° (S) 751 1.5 -13.6°
Enters shadow 21:51:45 28° 175° (S) 753 1.5 -13.6°
